Location: Newark
(45.9456°N, 15.4064°E)
Time: 21:07:33
(UTC+00:00)

Vanguard 3 - Pass Details

Date: 28 January 2020
Orbit: 508 x 3263 km, 33.3° (Epoch: 22 February)

Event Time Altitude Azimuth Distance (km) Brightness Sun altitude
Rises 18:47:15 0° 265° (W) 7,198 13.2 -29.5°
Reaches altitude 10° 18:52:18 10° 261° (W) 6,203 12.5 -30.4°
Maximum altitude 19:10:34 50° 195° (SSW) 3,346 10.1 -33.6°
Enters shadow 19:16:11 38° 151° (SSE) 3,422 9.9 -34.5°
Drops below altitude 10° 19:23:33 10° 125° (SE) 4,527 - -35.8°
Sets 19:26:37 0° 120° (ESE) 5,202 - -36.3°
